Regional Weather Roundup
Issued by NWS San Diego, CA

Home | Current Version | Previous Version | Text Only | Print | Product List | Glossary On
Versions: 1 2 3 4 5 6 7 8 9 10 11 12 13 14 15 16 17 18 19 20 21 22 23 24 25 26 27 28 29 30 31 32 33 34 35 36 37 38 39 40 41 42 43 44 45 46 47 48 49 50
000
ASUS46 KSGX 011511
RWRSGX

SAN DIEGO HOURLY WEATHER ROUNDUP
NATIONAL WEATHER SERVICE SAN DIEGO CA
800 AM PDT WED APR 01 2015

NOTE: "FAIR" INDICATES FEW OR NO CLOUDS BELOW 12,000 FEET WITH NO
SIGNIFICANT WEATHER AND/OR OBSTRUCTIONS TO VISIBILITY.

CAZ042-043-060-061-PZZ750-775-011600-

GREATER SAN DIEGO AREA

CITY           SKY/WX    TMP DP  RH WIND       PRES   REMARKS
LINDBERGH FLD  MOSUNNY   63  50  62 E6        29.99S
NATIONAL CITY    N/A     62  54  75 SE3       29.99S
CHULA VISTA      N/A     62  55  76 CALM      29.92F
IMPERIAL BEACH PTSUNNY   63  52  67 E7        29.99S
BROWN FIELD    MOSUNNY   59  50  72 E6        29.98F
MIRAMAR MCAS   MOSUNNY   61  49  64 SE7       29.98S
MONTGOMERY FLD MOSUNNY   60  50  69 E6        29.98S

$$

NORTH SAN DIEGO COUNTY

CITY           SKY/WX    TMP DP  RH WIND       PRES   REMARKS
CAMP PENDLETON PTSUNNY   61  50  67 CALM      29.98S
OCEANSIDE AP   CLOUDY    62  50  64 S6        29.98R
OCEANSIDE HBR    N/A     62  54  75 E3        30.01R
VISTA            N/A     59  52  78 CALM      29.97R
CARLSBAD       MOSUNNY   60  49  66 SE3       29.98R
DEL MAR          N/A     60  53  76 CALM      30.00S
LA JOLLA SCRIP   N/A    N/A N/A N/A CALM      29.96R
FALLBROOK        N/A     59  56  92 CALM      29.98R
ESCONDIDO        N/A     58  52  79 E3        29.99S

$$

EAST SAN DIEGO COUNTY

CITY           SKY/WX    TMP DP  RH WIND       PRES   REMARKS
RAMONA         MOSUNNY   53  47  79 E7        29.98F
LA MESA          N/A     58  51  78 S3        29.93S
JAMUL            N/A     55  50  83 CALM      29.98S
DESCANSO N       N/A     51  35  55 CALM      29.85F
MT. LAGUNA OBS   N/A     55  -5   8 N2        29.64R
CAMPO            N/A     41  32  70 CALM      29.96S

$$

ORANGE COUNTY AND THE LOS ANGELES BASIN

CITY           SKY/WX    TMP DP  RH WIND       PRES   REMARKS
JOHN WAYNE AP  PTSUNNY   61  50  67 SE5       29.99R
SANTA ANA        N/A     61  55  81 CALM      29.95R
LOS ALAMITOS   PTSUNNY   60  55  85 CALM      30.00R
FULLERTON      CLOUDY    62  51  67 CALM      30.00R
LONG BEACH     MOSUNNY   62  55  77 E3        30.00R
L.A. AP        PTSUNNY   59  55  87 CALM      30.01R
L.A. DOWNTOWN  PTSUNNY   62  53  72 CALM      30.00R

$$

THE INLAND EMPIRE

CITY           SKY/WX    TMP DP  RH WIND       PRES   REMARKS
CORONA         MOSUNNY   57  53  86 CALM      30.00R
CHINO          CLOUDY    58  52  80 S3        30.00R
ONTARIO        PTSUNNY   57  49  74 SW7       29.99R
SAN BERNARDINO PTSUNNY  N/A N/A N/A CALM      29.98R HAZE
RIVERSIDE AP   CLOUDY    58  51  78 S3        29.99R
MORENO VALLEY    N/A     53  53  98 SE2       29.95R
MARCH ARB      CLOUDY    52  52 100 S3        29.98R FOG
HORSETHIEF CYN   N/A     53  49  87 CALM      29.94R
PERRIS           N/A     52  51  99 E2          N/A
MENIFEE          N/A     55  53  95 CALM      30.04S
HEMET EAST       N/A     46  39  76 CALM      29.95S
FRENCH VALLEY  CLOUDY    54  48  82 CALM      29.99R
TEMECULA         N/A     55  51  86 CALM      29.95S

$$

SAN BERNARDINO AND RIVERSIDE COUNTY MOUNTAINS

CITY           SKY/WX    TMP DP  RH WIND       PRES   REMARKS
BIG BEAR AP    SUNNY     34  14  44 CALM      30.11S
ANGELUS OAKS     N/A     46  15  28 CALM      29.83S
PINE COVE        N/A     49   3  15 CALM      29.89R

$$

SOUTHERN DESERT INCLUDING THE COACHELLA VALLEY

CITY           SKY/WX    TMP DP  RH WIND       PRES   REMARKS
PALM SPRINGS   SUNNY     69  41  36 VRB3      29.88R
THOUSAND PALMS   N/A     67  43  41 W16       29.85R
PALM DESERT      N/A     66  47  49 CALM      31.87F
THERMAL        SUNNY     71  43  36 NW15      29.84R
BLYTHE         SUNNY     69  28  21 SW5       29.86R
IMPERIAL AP    SUNNY     69  36  29 W9        29.85R
EL CENTRO NAS  MOSUNNY   69  29  22 NW3       29.86R
YUMA AZ        SUNNY     68  43  40 CALM      29.86R
MEXICALI       SUNNY     61  32  33 CALM      29.86R

$$

UPPER DESERT

CITY           SKY/WX    TMP DP  RH WIND       PRES   REMARKS
VICTORVILLE AP SUNNY     52  30  43 W7        30.03R
PALMDALE       SUNNY     53  29  39 W17       30.05R
LANCASTER      SUNNY     52  29  41 W28G35    30.04R
EDWARDS AFB    PTSUNNY   55  31  40 W15       29.99R
DAGGETT        SUNNY     56  32  40 NW14      29.99R
29 PALMS N     SUNNY     62  23  22 N8        30.02R
NEEDLES        SUNNY     72  22  15 CALM      29.86R

$$

REGIONAL REPORTS

CITY           SKY/WX    TMP DP  RH WIND       PRES   REMARKS
SANTA BARBARA  MOSUNNY   57  45  64 CALM      29.99R
SANDBERG       SUNNY     43  27  53 N29G38    30.11R
MT. WILSON       N/A    N/A N/A N/A MISG        N/A
LAS VEGAS NV   MOSUNNY   66  17  15 SE7       29.89R
PHOENIX AZ     MOSUNNY   73  42  32 E10       29.87R
TIJUANA        MOSUNNY   59  48  67 NE2       30.01F
ENSENADA NW      N/A     60  32  34 E2        29.97R

$$

OFFSHORE ISLANDS

CITY           SKY/WX    TMP DP  RH WIND       PRES   REMARKS
CATALINA ARPT  SUNNY     57  51  80 CALM      30.01R
SAN CLEMENTE I PTSUNNY   59  58  96 S3        30.01R
SAN NICOLAS IS PTSUNNY   58  49  72 NW17      30.00R

$$

MARINE AND OFFSHORE BUOY REPORTS

STATION/POSITION SKY/WX   TEMP    WIND        PRES    SWELL
                          AIR SEA DIR/SP/G            HT/PER/DIR
                          (F)     (DEG/KT/KT) (MB)    (FT/S/D)
TANNER BANKS               60 61  330/ 21/ 25 1015.4R   8/320/11
S CLEMENTE BASIN           62 66   CALM  /  4 1015.2R   8/290/11
SAN NICOLAS IS.               60                N/A     8/310/11
SO. S. ROSA ISLA           58 59  330/ 27/ 33 1014.8R   8/11
W. S. BARBARA CH           55 55  330/ 23/ 29 1016.2R   8/310/10
S. MONICA BASIN            61 64   60/  4/  6 1015.7R   5/270/11
S PEDRO CHANNEL               63                N/A     3/280/12
DANA POINT                    64                N/A     3/190/14
CMP PENDLETON NS              66                N/A     3/210/13
OCEANSIDE OFFSHR              65                N/A     3/200/13
TORREY PINES OTR              66                N/A     3/270/11
LA JOLLA 1                 61 59   90/  6/  9 1015.0R
MISSION BAY BUOY              67                N/A     3/210/13
SAN DIEGO BAY                 68              1015.5R
POINT LOMA SOUTH              66                N/A     5/240/13

$$



USA.gov is the U.S. government's official web portal to all federal, state and local government web resources and services.